| time (UTC) | temp C | wind direction | speed KPH | gust KPH | rain 1hr cm | rain 24hr cm | rain mn cm | humidity % | barometer mb |
| 20260505081559 | 26 | 78 | 3.2 | 11.3 | 0.00 | 0.00 | 0.00 | 100 | 1015.3 |
| 20260505080050 | 26 | 88 | 3.2 | 14.5 | 0.00 | 0.00 | 0.00 | 100 | 1015.1 |
| 20260505074610 | 26 | 117 | 3.2 | 12.9 | 0.00 | 0.00 | 0.00 | 100 | 1015.1 |
| 20260505073054 | 26 | 113 | 4.8 | 12.9 | 0.00 | 0.00 | 0.00 | 100 | 1015.0 |
| 20260505071553 | 26 | 135 | 3.2 | 11.3 | 0.00 | 0.00 | 0.00 | 100 | 1014.9 |
| 20260505070055 | 26 | 110 | 3.2 | 9.7 | 0.00 | 0.00 | 0.00 | 100 | 1014.9 |
| 20260505064559 | 26 | 147 | 3.2 | 11.3 | 0.00 | 0.00 | 0.00 | 100 | 1015.0 |
| 20260505063058 | 26 | 145 | 3.2 | 9.7 | 0.00 | 0.00 | 0.00 | 100 | 1015.1 |
| 20260505061628 | 26 | 157 | 3.2 | 12.9 | 0.00 | 0.00 | 0.00 | 100 | 1015.2 |
| 20260505060058 | 26 | 96 | 3.2 | 12.9 | 0.00 | 0.00 | 0.00 | 100 | 1015.2 |
| 20260505054609 | 26 | 32 | 1.6 | 12.9 | 0.00 | 0.00 | 0.00 | 100 | 1015.2 |
| 20260505053056 | 26 | 141 | 1.6 | 8.0 | 0.00 | 0.00 | 0.00 | 100 | 1015.3 |
| 20260505051553 | 26 | 279 | 4.8 | 11.3 | 0.00 | 0.00 | 0.00 | 100 | 1015.6 |
| 20260505041554 | 26 | 48 | 3.2 | 9.7 | 0.00 | 0.00 | 0.00 | 100 | 1015.8 |
| 20260505040049 | 26 | 138 | 3.2 | 9.7 | 0.00 | 0.00 | 0.00 | 100 | 1016.0 |
| 20260505034551 | 26 | 133 | 3.2 | 11.3 | 0.00 | 0.00 | 0.00 | 100 | 1016.1 |
| 20260505033054 | 26 | 189 | 3.2 | 11.3 | 0.00 | 0.00 | 0.00 | 100 | 1016.3 |
| 20260505031558 | 26 | 147 | 4.8 | 9.7 | 0.00 | 0.00 | 0.00 | 100 | 1016.2 |
| 20260505030055 | 26 | 178 | 3.2 | 12.9 | 0.00 | 0.00 | 0.00 | 100 | 1016.3 |
| 20260505024608 | 26 | 142 | 3.2 | 9.7 | 0.00 | 0.00 | 0.00 | 100 | 1016.2 |
| 20260505023051 | 26 | 117 | 0.0 | 8.0 | 0.00 | 0.00 | 0.00 | 100 | 1016.2 |
| 20260505021609 | 26 | 90 | 1.6 | 11.3 | 0.00 | 0.00 | 0.00 | 100 | 1016.1 |
| 20260505020049 | 26 | 0 | 3.2 | 8.0 | 0.00 | 0.00 | 0.00 | 100 | 1016.0 |
| 20260505014549 | 26 | 143 | 1.6 | 8.0 | 0.00 | 0.00 | 0.00 | 100 | 1016.0 |
| 20260505013056 | 26 | 144 | 1.6 | 8.0 | 0.00 | 0.00 | 0.00 | 100 | 1015.9 |
| 20260505011557 | 26 | 104 | 1.6 | 9.7 | 0.00 | 0.00 | 0.00 | 100 | 1015.9 |
| 20260505010052 | 26 | 148 | 1.6 | 8.0 | 0.00 | 0.00 | 0.00 | 100 | 1015.8 |
| 20260505004550 | 26 | 91 | 3.2 | 9.7 | 0.00 | 0.00 | 0.00 | 100 | 1015.8 |
| 20260505003047 | 26 | 72 | 1.6 | 8.0 | 0.00 | 0.00 | 0.00 | 100 | 1015.5 |
| 20260505001546 | 26 | 27 | 3.2 | 8.0 | 0.00 | 0.00 | 0.00 | 100 | 1015.3 |
| 20260505000051 | 27 | 108 | 3.2 | 11.3 | 0.00 | 0.00 | 0.00 | 100 | 1015.2 |
| 20260504234551 | 27 | 0 | 3.2 | 14.5 | 0.00 | 0.00 | 0.00 | 100 | 1015.0 |
| 20260504233059 | 27 | 146 | 4.8 | 12.9 | 0.00 | 0.00 | 0.00 | 100 | 1014.8 |
| 20260504231549 | 26 | 20 | 3.2 | 11.3 | 0.00 | 0.00 | 0.00 | 100 | 1014.6 |
| 20260504230050 | 27 | 145 | 1.6 | 8.0 | 0.00 | 0.00 | 0.00 | 100 | 1014.4 |
| 20260504224548 | 27 | 99 | 3.2 | 17.7 | 0.00 | 0.00 | 0.00 | 100 | 1014.4 |
| 20260504223103 | 27 | 113 | 1.6 | 9.7 | 0.00 | 0.00 | 0.00 | 100 | 1014.4 |
| 20260504221558 | 27 | 142 | 1.6 | 9.7 | 0.00 | 0.00 | 0.00 | 100 | 1014.3 |
| 20260504220118 | 27 | 0 | 3.2 | 11.3 | 0.00 | 0.00 | 0.00 | 100 | 1014.3 |
| 20260504214551 | 27 | 82 | 1.6 | 12.9 | 0.00 | 0.00 | 0.00 | 100 | 1014.2 |
| 20260504213102 | 27 | 84 | 3.2 | 14.5 | 0.00 | 0.00 | 0.00 | 100 | 1014.0 |
| 20260504211554 | 27 | 72 | 3.2 | 11.3 | 0.00 | 0.00 | 0.00 | 100 | 1013.9 |
| 20260504210059 | 27 | 148 | 3.2 | 11.3 | 0.00 | 0.00 | 0.00 | 100 | 1013.9 |
| 20260504204604 | 27 | 153 | 1.6 | 12.9 | 0.00 | 0.00 | 0.00 | 100 | 1014.0 |
| 20260504203050 | 28 | 0 | 4.8 | 12.9 | 0.00 | 0.00 | 0.00 | 100 | 1013.9 |
| 20260504201603 | 28 | 103 | 3.2 | 16.1 | 0.00 | 0.00 | 0.00 | 100 | 1013.9 |
| 20260504194552 | 28 | 221 | 6.4 | 14.5 | 0.00 | 0.00 | 0.00 | 100 | 1014.2 |
| 20260504193049 | 28 | 141 | 4.8 | 12.9 | 0.00 | 0.00 | 0.00 | 100 | 1014.3 |
| 20260504191551 | 28 | 101 | 4.8 | 17.7 | 0.00 | 0.00 | 0.00 | 100 | 1014.4 |
| 20260504190047 | 28 | 109 | 6.4 | 14.5 | 0.00 | 0.00 | 0.00 | 100 | 1014.7 |
| 20260504184556 | 29 | 34 | 4.8 | 14.5 | 0.00 | 0.00 | 0.00 | 100 | 1014.9 |
| 20260504183045 | 29 | 134 | 6.4 | 12.9 | 0.00 | 0.00 | 0.00 | 100 | 1014.9 |
| 20260504181554 | 29 | 134 | 4.8 | 14.5 | 0.00 | 0.00 | 0.00 | 100 | 1014.9 |
| 20260504180052 | 30 | 86 | 3.2 | 16.1 | 0.00 | 0.00 | 0.00 | 100 | 1015.1 |
| 20260504174550 | 29 | 144 | 6.4 | 14.5 | 0.00 | 0.00 | 0.00 | 100 | 1015.2 |
| 20260504173059 | 29 | 141 | 4.8 | 16.1 | 0.00 | 0.00 | 0.00 | 100 | 1015.3 |
| 20260504171548 | 30 | 51 | 4.8 | 12.9 | 0.00 | 0.00 | 0.00 | 100 | 1015.5 |
| 20260504100103 | 26 | 54 | 3.2 | 12.9 | 0.00 | 0.00 | 0.00 | 100 | 1015.4 |